SL-16 DEB, 22432

Orbit data source: Space-Track

SL-16 DEB, 22432 is space debris in LEO originally from a launch on Fri, 25 Dec 1992 UTC launched from the Tyuratam Missile And Space Complex (TTMTR). Debris objects in space refer to the collection of defunct objects orbiting the Earth. Examples of debris include non-operational satellites, rocket bodies, and fragments generated from explosions, collisions, or faulty payload assembly.

Loading next visibility...
Identifier
22432, 1992-093DZ
Orbit
LEO
Country
Flag of CISCIS
Related business
Manufacturer
Unknown
Mission
Spacecraft
Bus & Motor
Unknown
Mass
Unknown
Launch date (UTC)
1992-12-25 (33 years ago)
Launch vehicle
Unknown
Launch site
Tyuratam Missile And Space Complex (TTMTR)
Object type
Payload
Rocket body
Debris
Shape & HBR
Unknown shape, 0.1 m
Radar Cross Section
Small (<0.1 m²)

Expand to show TLE details & history
Last TLE update: 22 hours ago

TLE from 22 hours ago
0 SL-16 DEB
1 22432U 92093DZ  25295.71581442  .00001302  00000-0  77428-3 0  9998
2 22432  70.8350  21.6428 0102296 333.7254 183.0886 14.06761747672471
Epoch: 2025-10-22T17:10Z
TLE epoch observation values (Epoch: 2025-10-22T17:10:46.365Z)
Latitude
21.91312°
Longitude
-95.43043°
Altitude
946.673 km
Speed
7.343 km/s
True Right ascension
12h 54m 35s
True Declination
21° 47' 51"
Sunlit
Object was in daylight at epoch
Visualization orbit readout
Latitude
Unknown
Longitude
Unknown
Altitude
Unknown
Speed
Unknown
Apparent Right ascension
Unknown
Apparent Declination
Unknown
Sunlit
N/A
Visualization observer readout
Local Sidereal Time
10:26:29
Azimuth
Unknown
Elevation
Unknown
Doppler factor
Unknown
Orbital elements
Apogee altitude
942.553 km
Perigee altitude
794.294 km
Semi-major axis
7,246.56 km
Eccentricity
0.01023
Inclination
70.835°
RAAN
21.6428°
Arg. of periapsis
333.7254°
True anomaly
183.02624°
Mean anomaly
183.0886°
Eccentric anomaly
183.05734°
Mean motion
3.5184 °/min
Orbital period
102.32 mins
BSTAR
0.00077428
Loading maneuver chart data...
Computing Atmospheric mass density...

Documentation

Showing up to 5 results
|